• In Hungary
  • List of Countries
  • For 7 days
  • Water Temperature
  • Satellite Maps
  • Weather Map
  • News
  • Weather Widgets
  • user-avatar
    Login

    Hourly Weather Uige

    Today, 25 April, Wednesday

    Time Temperature Precipitation Wind Pressure Humidity
    00:00 +22°C° 0.1 mm 1 mps 691 mmHg 95%
    01:00 +22°C° 0.1 mm 1 mps 691 mmHg 96%
    02:00 +22°C° 0.2 mm 1 mps 691 mmHg 96%
    03:00 +22°C° 0.2 mm 1 mps 691 mmHg 97%
    04:00 +21°C° 0.2 mm 1 mps 690 mmHg 97%
    05:00 +22°C° 0.4 mm 1 mps 691 mmHg 96%
    06:00 +22°C° 0.4 mm 1 mps 691 mmHg 95%
    07:00 +23°C° 0.4 mm 1 mps 692 mmHg 94%
    08:00 +24°C° 0.7 mm 1 mps 692 mmHg 88%
    09:00 +26°C° 0.7 mm 1 mps 692 mmHg 82%
    10:00 +28°C° 0.7 mm 1 mps 692 mmHg 75%
    11:00 +29°C° 0.8 mm 1 mps 692 mmHg 71%
    12:00 +30°C° 0.8 mm 1 mps 692 mmHg 66%
    13:00 +31°C° 0.8 mm 1 mps 691 mmHg 61%
    14:00 +30°C° 2 mm 1 mps 691 mmHg 69%
    15:00 +28°C° 2 mm 1 mps 691 mmHg 77%
    16:00 +27°C° 2 mm 1 mps 690 mmHg 85%
    17:00 +26°C° 2.2 mm 1 mps 691 mmHg 88%
    18:00 +24°C° 2.2 mm 1 mps 691 mmHg 91%
    19:00 +23°C° 2.2 mm 2 mps 691 mmHg 94%
    20:00 +23°C° 0.7 mm 1 mps 691 mmHg 95%
    21:00 +22°C° 0.7 mm 1 mps 692 mmHg 95%
    22:00 +22°C° 0.7 mm 1 mps 692 mmHg 96%
    23:00 +22°C° 0.2 mm 1 mps 692 mmHg 96%

    Tomorrow, 26 April, Thursday

    Time Temperature Precipitation Wind Pressure Humidity
    00:00 +22°C° 0.2 mm 1 mps 692 mmHg 96%
    01:00 +22°C° 0.2 mm 1 mps 692 mmHg 96%
    02:00 +22°C° 0.3 mm 1 mps 692 mmHg 96%
    03:00 +22°C° 0.3 mm 1 mps 692 mmHg 96%
    04:00 +22°C° 0.3 mm 1 mps 691 mmHg 96%
    05:00 +22°C° 0.2 mm 1 mps 692 mmHg 96%
    06:00 +20°C° 0.2 mm 0 mps 692 mmHg 95%
    07:00 +20°C° 0.2 mm 0 mps 692 mmHg 95%
    08:00 +22°C° 0.4 mm 0 mps 693 mmHg 87%
    09:00 +26°C° 0.4 mm 1 mps 693 mmHg 80%
    10:00 +28°C° 0.4 mm 1 mps 694 mmHg 72%
    11:00 +29°C° 1.2 mm 1 mps 693 mmHg 72%
    12:00 +29°C° 1.2 mm 1 mps 692 mmHg 71%
    13:00 +29°C° 1.2 mm 1 mps 692 mmHg 71%
    14:00 +28°C° 1.8 mm 1 mps 691 mmHg 75%
    15:00 +28°C° 1.8 mm 1 mps 691 mmHg 80%
    16:00 +27°C° 1.8 mm 1 mps 690 mmHg 85%
    17:00 +25°C° 1 mm 1 mps 691 mmHg 88%
    18:00 +24°C° 1 mm 1 mps 691 mmHg 90%
    19:00 +21°C° 1 mm 0 mps 691 mmHg 93%
    20:00 +21°C° 0.2 mm 0 mps 692 mmHg 93%
    21:00 +21°C° 0.2 mm 0 mps 692 mmHg 94%
    22:00 +20°C° 0.2 mm 0 mps 693 mmHg 94%
    23:00 +22°C° 0.4 mm 1 mps 692 mmHg 95%

    Day after tomorrow, 27 April, Friday

    Time Temperature Precipitation Wind Pressure Humidity
    00:00 +22°C° 0.4 mm 1 mps 692 mmHg 95%
    01:00 +22°C° 0.4 mm 1 mps 692 mmHg 95%
    02:00 +22°C° 0.1 mm 1 mps 691 mmHg 95%
    03:00 +22°C° 0.1 mm 1 mps 691 mmHg 95%
    04:00 +22°C° 0.1 mm 1 mps 691 mmHg 94%
    05:00 +22°C° 0 mm 1 mps 691 mmHg 94%
    06:00 +22°C° 0 mm 1 mps 691 mmHg 93%
    07:00 +22°C° 0 mm 1 mps 692 mmHg 92%
    08:00 +24°C° 0 mm 1 mps 692 mmHg 82%
    09:00 +27°C° 0 mm 1 mps 693 mmHg 71%
    10:00 +29°C° 0 mm 1 mps 694 mmHg 61%
    11:00 +30°C° 0 mm 1 mps 693 mmHg 58%
    12:00 +31°C° 0 mm 1 mps 692 mmHg 55%
    13:00 +31°C° 0 mm 1 mps 692 mmHg 52%
    14:00 +31°C° 0 mm 1 mps 691 mmHg 53%
    15:00 +31°C° 0 mm 1 mps 691 mmHg 54%
    16:00 +29°C° 0 mm 0 mps 690 mmHg 55%
    17:00 +27°C° 0.6 mm 0 mps 690 mmHg 62%
    18:00 +27°C° 0.6 mm 1 mps 690 mmHg 70%
    19:00 +25°C° 0.6 mm 1 mps 691 mmHg 77%
    20:00 +22°C° 2.2 mm 0 mps 691 mmHg 82%
    21:00 +22°C° 2.2 mm 0 mps 691 mmHg 87%
    22:00 +21°C° 2.2 mm 0 mps 692 mmHg 92%
    23:00 +21°C° 0.4 mm 0 mps 692 mmHg 92%

    28 April, Saturday

    Time Temperature Precipitation Wind Pressure Humidity
    00:00 +20°C° 0.4 mm 0 mps 691 mmHg 93%
    01:00 +20°C° 0.4 mm 0 mps 691 mmHg 93%
    02:00 +20°C° 0.8 mm 0 mps 691 mmHg 94%
    03:00 +20°C° 0.8 mm 0 mps 691 mmHg 94%
    04:00 +20°C° 0.8 mm 0 mps 691 mmHg 95%
    05:00 +20°C° 0 mm 0 mps 691 mmHg 94%
    06:00 +20°C° 0 mm 0 mps 692 mmHg 93%
    07:00 +21°C° 0 mm 0 mps 692 mmHg 92%
    08:00 +25°C° 0.4 mm 1 mps 693 mmHg 84%
    09:00 +27°C° 0.4 mm 1 mps 693 mmHg 77%
    10:00 +29°C° 0.4 mm 1 mps 694 mmHg 69%
    11:00 +30°C° 0.6 mm 1 mps 693 mmHg 63%
    12:00 +31°C° 0.6 mm 1 mps 693 mmHg 58%
    13:00 +32°C° 0.6 mm 1 mps 692 mmHg 52%
    14:00 +31°C° 0.4 mm 1 mps 692 mmHg 57%
    15:00 +30°C° 0.4 mm 1 mps 691 mmHg 63%
    16:00 +28°C° 0.4 mm 1 mps 691 mmHg 68%
    17:00 +27°C° 0.7 mm 1 mps 691 mmHg 73%
    18:00 +24°C° 0.7 mm 0 mps 691 mmHg 78%
    19:00 +22°C° 0.7 mm 0 mps 691 mmHg 83%
    20:00 +22°C° 0.1 mm 0 mps 692 mmHg 85%
    21:00 +21°C° 0.1 mm 0 mps 692 mmHg 87%
    22:00 +21°C° 0.1 mm 0 mps 692 mmHg 89%
    23:00 +20°C° 0.1 mm 0 mps 692 mmHg 90%

    29 April, Sunday

    Time Temperature Precipitation Wind Pressure Humidity
    00:00 +20°C° 0.1 mm 0 mps 692 mmHg 90%
    01:00 +22°C° 0.1 mm 1 mps 691 mmHg 91%
    02:00 +22°C° 0 mm 1 mps 691 mmHg 93%
    03:00 +21°C° 0 mm 1 mps 691 mmHg 94%
    04:00 +21°C° 0 mm 1 mps 691 mmHg 96%
    05:00 +21°C° 0 mm 1 mps 691 mmHg 95%
    06:00 +22°C° 0 mm 1 mps 692 mmHg 95%
    07:00 +22°C° 0 mm 1 mps 692 mmHg 94%
    08:00 +24°C° 0.2 mm 1 mps 693 mmHg 84%
    09:00 +27°C° 0.2 mm 1 mps 693 mmHg 73%
    10:00 +29°C° 0.2 mm 1 mps 694 mmHg 63%
    11:00 +30°C° 0 mm 1 mps 693 mmHg 57%
    12:00 +31°C° 0 mm 1 mps 692 mmHg 51%
    13:00 +32°C° 0 mm 1 mps 692 mmHg 45%
    14:00 +32°C° 0 mm 1 mps 691 mmHg 50%
    15:00 +31°C° 0 mm 1 mps 691 mmHg 54%
    16:00 +28°C° 0 mm 0 mps 690 mmHg 59%
    17:00 +27°C° 0 mm 0 mps 690 mmHg 63%
    18:00 +25°C° 0 mm 0 mps 690 mmHg 66%
    19:00 +26°C° 0 mm 1 mps 691 mmHg 70%
    20:00 +23°C° 0.1 mm 0 mps 691 mmHg 73%
    21:00 +22°C° 0.1 mm 0 mps 691 mmHg 75%
    22:00 +21°C° 0.1 mm 0 mps 691 mmHg 78%
    23:00 +21°C° 0 mm 0 mps 691 mmHg 79%

    30 April, Monday

    Time Temperature Precipitation Wind Pressure Humidity
    00:00 +21°C° 0 mm 0 mps 690 mmHg 80%
    01:00 +20°C° 0 mm 0 mps 690 mmHg 81%
    02:00 +20°C° 0 mm 0 mps 690 mmHg 82%
    03:00 +20°C° 0 mm 0 mps 690 mmHg 83%
    04:00 +19°C° 0 mm 0 mps 690 mmHg 84%
    05:00 +20°C° 0 mm 0 mps 690 mmHg 83%
    06:00 +20°C° 0 mm 0 mps 691 mmHg 83%
    07:00 +22°C° 0 mm 1 mps 691 mmHg 82%
    08:00 +25°C° 0 mm 1 mps 692 mmHg 72%
    09:00 +28°C° 0 mm 1 mps 692 mmHg 62%
    10:00 +30°C° 0 mm 1 mps 692 mmHg 52%
    11:00 +31°C° 0 mm 1 mps 692 mmHg 49%
    12:00 +32°C° 0 mm 1 mps 691 mmHg 46%
    13:00 +33°C° 0 mm 1 mps 691 mmHg 42%
    14:00 +32°C° 0 mm 1 mps 690 mmHg 47%
    15:00 +29°C° 0 mm 0 mps 690 mmHg 52%
    16:00 +28°C° 0 mm 0 mps 689 mmHg 57%
    17:00 +27°C° 0 mm 0 mps 690 mmHg 61%
    18:00 +25°C° 0 mm 0 mps 690 mmHg 65%
    19:00 +24°C° 0 mm 0 mps 690 mmHg 68%
    20:00 +23°C° 0 mm 0 mps 690 mmHg 71%
    21:00 +23°C° 0 mm 0 mps 690 mmHg 74%
    22:00 +22°C° 0 mm 0 mps 691 mmHg 76%
    23:00 +22°C° 0 mm 0 mps 690 mmHg 79%
    Show more